sim
Sign-in with your pilot id or email,
or register
Callsign
Passwort

Schedule Details

Flight Number: RYR7068 (2)
Departure: Rome Ciampino Airport (LIRA) at 05:40
Arrival: Thessaloniki International Airport (LGTS) at 07:25
Route: Ryanair Passenger Schedule. Enter filed route here before submitting Pirep.

Weather Information
Getting current METAR information for LIRA 211820Z 22003KT 180V260 CAVOK 27/16 Q1017
Getting current METAR information for LGTS 211820Z 10005KT CAVOK 27/13 Q1016 NOSIG

Schedule Frequency

Route Map